GFSNIL_sfc_thetae_126.txt.gz
Theta_e
366 363 362 359 358 358 352 345 348 359 357 358 359 360 361 358 360 360 359 357 356 353
365 366 362 363 364 360 358 349 347 346 358 357 358 359 361 359 359 360 358 359 358 357
362 365 366 365 363 361 359 359 360 354 360 359 359 360 361 359 360 360 360 360 358 359
358 359 363 362 365 363 362 361 358 358 358 360 359 362 360 361 361 358 359 360 359 358
354 354 355 357 360 361 360 361 360 361 357 354 356 361 360 359 359 358 358 358 359 357
350 350 351 352 356 361 357 359 360 359 357 353 354 355 359 361 360 359 358 360 359 357
348 348 348 350 352 355 358 357 357 357 358 354 352 349 352 358 359 360 361 360 359 358
347 346 347 350 350 351 353 356 356 355 357 355 351 347 343 356 359 359 359 359 360 360
344 346 345 346 347 346 349 352 355 355 356 353 354 341 338 351 357 358 357 356 358 359
343 343 344 345 345 343 345 350 350 352 353 352 355 329 330 333 355 355 357 357 357 358
340 339 343 343 344 343 341 345 345 347 350 349 347 327 327 330 350 353 354 356 356 357
338 339 340 341 343 344 343 341 343 343 343 341 342 325 324 330 341 347 353 354 355 355
334 337 338 342 341 341 342 340 344 342 344 337 344 322 320 326 340 339 340 345 354 334
335 335 340 342 344 343 341 344 342 342 339 340 336 332 317 316 341 342 342 341 345 353

GFSNIL_sfc_thetae_129.txt.gz
Theta_e
360 358 356 354 352 350 349 349 350 351 353 353 353 353 353 351 350 352 352 349 350 348
356 357 357 358 356 356 354 351 347 344 351 353 354 353 352 353 352 350 352 353 352 350
350 351 354 355 355 356 356 355 352 350 345 351 352 352 353 352 353 352 351 354 353 353
345 348 349 351 354 357 356 356 355 354 353 341 345 351 351 353 353 351 352 354 353 353
345 345 345 346 348 352 353 355 356 356 354 353 353 354 352 351 353 352 351 353 354 353
340 341 341 342 343 344 347 350 353 354 353 353 354 351 354 345 343 344 351 352 353 354
337 340 339 339 341 342 343 345 348 351 351 352 353 352 350 341 337 337 340 346 353 354
336 338 338 337 339 342 342 342 343 346 350 350 350 352 348 346 339 337 334 335 339 354
336 335 337 337 338 339 340 340 341 343 345 348 351 341 333 342 339 336 336 337 341 352
334 334 334 335 336 337 337 337 339 340 344 345 347 331 331 333 340 340 340 338 341 347
332 331 333 334 335 336 337 336 336 339 341 343 340 326 323 329 345 333 330 330 334 343
328 328 328 329 332 334 335 336 336 337 339 340 341 323 322 326 341 343 336 335 345 345
327 328 328 329 329 331 332 335 336 336 338 335 338 323 317 324 335 335 337 340 345 333
324 326 328 329 327 331 331 332 332 332 332 330 327 326 314 314 330 336 335 337 339 343

GFSNIL_sfc_thetae_132.txt.gz
Theta_e
351 352 352 352 351 350 349 348 349 348 350 351 349 348 349 347 347 349 349 347 348 345
349 351 351 352 352 353 353 353 350 349 348 349 351 350 349 349 347 347 349 349 347 348
346 348 350 349 349 349 352 352 353 353 350 346 350 352 349 349 350 349 347 348 349 348
342 342 347 345 346 347 348 349 352 353 352 350 345 350 350 351 349 348 349 348 348 350
341 343 341 340 342 344 345 347 349 350 351 352 351 345 349 349 350 349 348 349 349 349
335 335 336 339 339 340 341 342 345 347 346 348 348 348 347 348 348 348 350 351 350 350
333 333 334 336 336 337 339 339 340 341 343 344 347 347 348 350 349 349 345 339 338 339
332 333 335 335 335 336 337 339 340 339 339 340 343 346 347 349 347 344 342 340 339 339
331 332 332 333 333 334 335 337 338 338 337 338 342 336 335 342 347 341 340 339 337 335
330 329 330 331 331 331 332 335 335 333 335 337 339 333 331 333 344 344 340 340 336 335
328 326 326 326 326 327 330 333 333 335 335 336 338 329 325 327 338 343 342 341 338 336
325 324 324 324 324 325 325 328 331 334 334 334 335 324 320 321 331 339 338 338 339 338
322 322 321 322 324 326 328 329 331 332 334 331 335 323 317 319 332 334 338 337 334 326
321 320 321 322 324 327 327 327 328 330 332 332 328 329 315 314 330 333 333 335 337 340

GFSNIL_sfc_thetae_135.txt.gz
Theta_e
351 350 349 349 350 350 349 349 348 346 349 350 350 349 348 347 346 346 345 344 345 345
351 349 348 348 349 350 351 351 349 348 347 347 349 349 348 346 345 345 346 347 347 346
340 342 346 346 345 345 348 350 351 350 349 347 347 347 347 343 346 345 345 346 345 346
339 340 340 341 343 343 344 345 346 347 349 349 348 344 346 348 345 345 344 346 345 346
336 336 335 336 336 337 338 341 344 346 345 346 348 348 343 345 349 347 346 346 345 344
333 332 331 332 333 334 335 337 338 341 341 343 344 344 343 345 346 347 348 348 346 346
331 330 330 331 332 333 334 335 336 337 339 340 342 344 344 344 343 345 346 347 349 349
331 330 330 330 332 333 333 334 335 336 338 339 340 341 340 342 342 344 345 348 348 348
328 328 328 329 329 330 331 332 332 334 336 337 338 333 331 336 340 343 345 343 346 344
329 327 327 327 326 326 326 327 329 331 334 334 336 330 327 330 337 340 343 344 343 343
327 326 324 323 322 322 323 324 325 328 331 332 334 327 323 325 333 337 340 345 343 342
326 323 322 321 320 321 322 323 323 326 327 330 332 323 319 321 331 333 335 342 344 343
324 321 320 319 318 320 322 324 326 327 331 328 332 323 316 318 330 333 333 336 340 330
320 319 318 317 318 319 321 324 326 327 328 330 330 329 315 312 321 332 333 334 335 336

GFSNIL_sfc_thetae_141.txt.gz
Theta_e
360 357 357 360 359 358 357 358 363 364 364 363 362 362 362 357 356 355 352 351 351 351
363 363 362 364 363 358 360 358 360 361 360 359 360 361 362 355 355 354 352 350 353 347
357 357 356 356 355 356 357 358 356 354 352 351 353 355 358 356 357 355 353 352 351 348
351 351 350 349 350 351 352 351 350 348 346 346 346 348 353 353 355 353 355 355 351 348
344 344 344 345 345 348 347 347 347 346 345 345 346 347 347 347 349 350 349 351 352 348
341 341 341 341 341 341 342 342 344 345 344 343 344 344 345 346 347 349 349 350 351 352
339 340 338 338 340 340 342 341 343 343 343 344 344 343 343 343 344 346 347 351 351 351
340 339 337 337 338 339 340 341 343 342 342 342 340 337 339 340 341 345 344 348 347 349
338 337 336 336 337 338 339 340 342 340 338 336 334 328 328 334 336 339 340 341 345 347
336 335 334 335 336 336 338 340 338 337 335 333 335 326 324 327 335 336 337 339 340 338
335 333 333 335 335 336 337 336 334 332 332 333 333 324 321 323 331 333 335 336 337 338
333 331 333 332 333 335 333 331 329 330 331 332 334 322 319 324 334 331 332 335 335 336
333 333 332 333 332 331 330 328 328 329 331 329 333 323 315 320 332 330 326 329 333 328
334 333 333 331 331 330 329 328 327 328 331 334 333 334 315 313 326 325 322 322 326 333